Longview, TX

3:53 PM CDT on October 22, 2017 (GMT -0500)
Gregg County

Weather History for KGGG - June, 2014

Change the Weather History Date:

Monday, June 23, 2014

  Actual Average Record
Temperature  
Mean Temperature 80 °F 81 °F  
Max Temperature 86 °F 91 °F 104 °F (1953)
Min Temperature 74 °F 71 °F 58 °F (1902)
Degree Days  
Heating Degree Days 0 0  
Month to date heating degree days 0 0  
Since 1 June heating degree days 0 0  
Since 1 July heating degree days 2611 2258  
Cooling Degree Days 15 16  
Month to date cooling degree days 350 322  
Year to date cooling degree days 704 701  
Since 1 June cooling degree days 350 322  
Growing Degree Days 28 (Base 50)    
Moisture  
Dew Point 72 °F    
Average Humidity 80    
Maximum Humidity 94    
Minimum Humidity 65    
Precipitation  
Precipitation 0.05 in 0.18 in 2.60 in (1921)
Month to date precipitation 1.97 3.87  
Year to date precipitation 19.74 23.60  
Snow  
Snow 0.00 in - - ()
Month to date snowfall 0.0  
Since 1 June snowfall 0.0  
Since 1 July snowfall 0.3  
Snow Depth 0.00 in    
Sea Level Pressure  
Sea Level Pressure 29.90 in    
Wind  
Wind Speed 9 mph (SSW)    
Max Wind Speed 25 mph    
Max Gust Speed 30 mph    
Visibility 10 miles    
Events Rain    
T = Trace of Precipitation, MM = Missing Value Source: NWS Daily Summary

Daily Weather History Graph

Daily Weather History Graph

Search for Another Location

Airport or City:

Trip Planner

Search our weather history database for the weather conditions in past years. The results will help you decide how hot, cold, wet, or windy it might be!

Date:

Astronomy

Jun. 23, 2014 Rise Set
Actual Time 6:12 AM CDT 8:29 PM CDT
Civil Twilight 5:44 AM CDT 8:57 PM CDT
Nautical Twilight 5:09 AM CDT 9:32 PM CDT
Astronomical Twilight 4:31 AM CDT 10:10 PM CDT
Moon 3:30 AM CDT (6/23) 5:18 PM CDT (6/23)
Length of Visible Light 15h 13m
Length of Day
14h 16m
Waning Crescent, 13% of the Moon is Illuminated
Jun 23
Waning Crescent
Jun 27
New
Jul 5
First Quarter
Jul 12
Full
Jul 18
Last Quarter

Hourly Weather History & Observations

Time (CDT) Temp. Heat Index Dew Point Humidity Pressure Visibility Wind Dir Wind Speed Gust Speed Precip Events Conditions
12:53 AM 73.9 °F - 70.0 °F 87% 29.85 in 10.0 mi South 5.8 mph - N/A   Clear
1:53 AM 73.9 °F - 70.0 °F 87% 29.86 in 10.0 mi SSE 5.8 mph - N/A   Clear
2:53 AM 73.9 °F - 71.1 °F 91% 29.87 in 10.0 mi Calm Calm - N/A   Partly Cloudy
3:53 AM 75.0 °F - 71.1 °F 87% 29.88 in 10.0 mi South 4.6 mph - N/A   Mostly Cloudy
4:53 AM 73.9 °F - 71.1 °F 91% 29.88 in 9.0 mi SSW 4.6 mph - N/A   Clear
5:53 AM 75.0 °F - 71.1 °F 87% 29.88 in 9.0 mi South 5.8 mph - N/A   Clear
7:53 AM 75.9 °F - 73.0 °F 91% 29.91 in 7.0 mi South 8.1 mph - N/A   Partly Cloudy
8:53 AM 78.1 °F - 73.0 °F 84% 29.93 in 8.0 mi SSW 9.2 mph - N/A   Partly Cloudy
9:38 AM 80.6 °F 85.4 °F 73.4 °F 79% 29.94 in 9.0 mi SSW 11.5 mph - N/A   Mostly Cloudy
9:53 AM 80.1 °F 84.2 °F 73.0 °F 79% 29.93 in 9.0 mi SSW 9.2 mph - N/A   Overcast
10:10 AM 80.6 °F 85.4 °F 73.4 °F 79% 29.94 in 9.0 mi SSW 10.4 mph - N/A   Mostly Cloudy
10:53 AM 82.9 °F 88.8 °F 73.0 °F 72% 29.91 in 10.0 mi SW 12.7 mph 24.2 mph N/A   Mostly Cloudy
11:03 AM 84.2 °F 90.9 °F 73.4 °F 70% 29.93 in 10.0 mi SW 12.7 mph 21.9 mph N/A   Mostly Cloudy
11:10 AM 84.2 °F 90.9 °F 73.4 °F 70% 29.93 in 10.0 mi SSW 12.7 mph 20.7 mph N/A   Mostly Cloudy
11:41 AM 80.6 °F 85.4 °F 73.4 °F 79% 29.93 in 10.0 mi SW 10.4 mph - 0.01 in Rain Light Rain
11:53 AM 81.0 °F 86.2 °F 73.9 °F 79% 29.91 in 8.0 mi SW 15.0 mph 21.9 mph 0.01 in Rain Light Rain
12:53 PM 82.0 °F 87.9 °F 73.9 °F 76% 29.87 in 10.0 mi South 17.3 mph 26.5 mph 0.02 in   Clear
1:53 PM 80.1 °F 83.2 °F 70.0 °F 71% 29.83 in 10.0 mi South 18.4 mph 25.3 mph 0.02 in   Clear
2:53 PM 79.0 °F - 70.0 °F 74% 29.88 in 10.0 mi SW 9.2 mph - N/A   Clear
5:53 PM 84.0 °F 89.6 °F 72.0 °F 67% 29.88 in 10.0 mi SW 13.8 mph - N/A   Scattered Clouds
6:53 PM 82.9 °F 88.0 °F 72.0 °F 69% 29.87 in 10.0 mi SW 8.1 mph - N/A   Partly Cloudy
7:53 PM 82.9 °F 88.8 °F 73.0 °F 72% 29.88 in 10.0 mi SW 6.9 mph - N/A   Partly Cloudy
8:53 PM 80.1 °F 84.2 °F 73.0 °F 79% 29.89 in 10.0 mi SW 5.8 mph - N/A   Clear
9:53 PM 79.0 °F - 73.0 °F 82% 29.92 in 10.0 mi SW 4.6 mph - N/A   Clear
10:53 PM 77.0 °F - 73.0 °F 88% 29.93 in 10.0 mi WNW 4.6 mph - N/A   Clear
11:53 PM 77.0 °F - 73.0 °F 88% 29.95 in 10.0 mi SW 6.9 mph - N/A   Scattered Clouds